User: anonymous   Login
Location: Oronoko Observatory
(41.9167°N, 86.3833°W)
Time: 19:10:18
(UTC-05:00)
Language:

PAYLOAD A - Orbit

View from above orbital plane
View from above orbital plane
View from above satellite
View from above satellite

Ground track
Ground track

The orbit data is extracted from the following two-line orbital elements,

1 27840U 03031A   14330.87965398  .00000088  00000-0  40417-4 0  7066
2 27840 098.2230 352.8808 0099213 052.9301 073.1965 14.38746720599102
Epoch (UTC): 26 November 2014 21:06:42
Eccentricity: 0.0099213
inclination: 98.2230°
perigee height: 692 km
apogee height: 833 km
right ascension of ascending node: 352.8808°
argument of perigee: 52.9301°
revolutions per day: 14.38746720
mean anomaly at epoch: 73.1965°
orbit number at epoch: 59910

The dashed part of the orbit path shows where the satellite is in the earth's shadow,  

DLR